Time,TemperatureF,DewpointF,PressureIn,WindDirection,WindDirectionDegrees,WindSpeedMPH,WindSpeedGustMPH,Humidity,HourlyPrecipIn,Conditions,Clouds,dailyrainin,SolarRadiationWatts/m^2,SoftwareType,DateUTC
2013-01-30 00:01:00,27.6,26.6,29.67,NW,325,0.0,0.0,96,0.00,,,0.00,0,WeatherCatV1.11B39,2013-01-30 05:01:00,
2013-01-30 00:03:00,27.6,26.6,29.67,NW,325,0.0,0.0,96,0.00,,,0.00,0,WeatherCatV1.11B39,2013-01-30 05:03:00,
2013-01-30 00:06:00,27.7,26.7,29.67,NW,325,0.0,0.0,96,0.00,,,0.00,0,WeatherCatV1.11B39,2013-01-30 05:06:00,
2013-01-30 00:11:00,27.8,26.8,29.67,NW,325,0.0,0.0,96,0.00,,,0.00,0,WeatherCatV1.11B39,2013-01-30 05:11:00,
2013-01-30 00:16:00,27.9,26.9,29.66,NW,325,0.0,0.0,96,0.00,,,0.00,0,WeatherCatV1.11B39,2013-01-30 05:16:00,
2013-01-30 00:21:00,28.0,27.0,29.66,NW,325,0.0,0.0,96,0.00,,,0.00,0,WeatherCatV1.11B39,2013-01-30 05:21:00,
2013-01-30 00:26:00,28.1,27.1,29.66,NW,325,0.0,0.0,96,0.00,,,0.00,0,WeatherCatV1.11B39,2013-01-30 05:26:00,
2013-01-30 00:31:00,28.1,27.1,29.66,NW,325,0.0,0.0,96,0.00,,,0.00,0,WeatherCatV1.11B39,2013-01-30 05:31:00,
2013-01-30 00:36:00,28.2,27.2,29.65,NW,325,0.0,0.0,96,0.00,,,0.00,0,WeatherCatV1.11B39,2013-01-30 05:36:00,
2013-01-30 00:41:00,28.2,27.2,29.66,NW,325,0.0,0.0,96,0.00,,,0.00,0,WeatherCatV1.11B39,2013-01-30 05:41:00,
2013-01-30 00:46:00,28.3,27.3,29.65,NW,325,0.0,0.0,96,0.00,,,0.00,0,WeatherCatV1.11B39,2013-01-30 05:46:00,
2013-01-30 00:51:00,28.4,27.4,29.65,NW,325,0.0,0.0,96,0.00,,,0.00,0,WeatherCatV1.11B39,2013-01-30 05:51:00,
2013-01-30 00:56:00,28.5,27.5,29.64,NW,325,0.0,0.0,96,0.00,,,0.00,0,WeatherCatV1.11B39,2013-01-30 05:56:00,
2013-01-30 01:01:00,28.7,28.0,29.64,NW,325,0.0,0.0,97,0.00,,,0.00,0,WeatherCatV1.11B39,2013-01-30 06:01:00,
2013-01-30 01:06:00,28.8,28.1,29.64,NW,325,0.0,0.0,97,0.00,,,0.00,0,WeatherCatV1.11B39,2013-01-30 06:06:00,
2013-01-30 01:11:00,28.8,28.1,29.64,NW,325,0.0,0.0,97,0.00,,,0.00,0,WeatherCatV1.11B39,2013-01-30 06:11:00,
2013-01-30 01:16:00,28.9,28.2,29.64,NW,325,0.0,0.0,97,0.00,,,0.00,0,WeatherCatV1.11B39,2013-01-30 06:16:00,
2013-01-30 01:21:00,29.1,28.4,29.64,NW,325,0.0,0.0,97,0.00,,,0.00,0,WeatherCatV1.11B39,2013-01-30 06:21:00,
2013-01-30 01:26:00,29.2,28.5,29.64,NW,325,0.0,0.0,97,0.00,,,0.00,0,WeatherCatV1.11B39,2013-01-30 06:26:00,
2013-01-30 01:31:00,29.2,28.5,29.63,NW,325,0.0,0.0,97,0.00,,,0.00,0,WeatherCatV1.11B39,2013-01-30 06:31:00,
2013-01-30 01:36:00,29.3,28.6,29.63,NW,325,0.0,0.0,97,0.00,,,0.00,0,WeatherCatV1.11B39,2013-01-30 06:36:00,
2013-01-30 01:41:00,29.4,28.7,29.62,NW,325,0.0,0.0,97,0.00,,,0.00,0,WeatherCatV1.11B39,2013-01-30 06:41:00,
2013-01-30 01:46:00,29.5,28.8,29.62,NW,325,0.0,0.0,97,0.00,,,0.00,0,WeatherCatV1.11B39,2013-01-30 06:46:00,
2013-01-30 01:51:00,29.6,28.9,29.62,NW,325,0.0,0.0,97,0.00,,,0.00,0,WeatherCatV1.11B39,2013-01-30 06:51:00,
2013-01-30 01:56:00,29.7,29.0,29.62,NW,325,0.0,0.0,97,0.00,,,0.00,0,WeatherCatV1.11B39,2013-01-30 06:56:00,
2013-01-30 02:01:00,29.8,29.1,29.61,NW,325,0.0,1.0,97,0.00,,,0.00,0,WeatherCatV1.11B39,2013-01-30 07:01:00,
2013-01-30 02:06:00,29.8,29.1,29.61,NW,325,0.0,0.0,97,0.00,,,0.00,0,WeatherCatV1.11B39,2013-01-30 07:06:00,
2013-01-30 02:11:00,29.9,29.2,29.61,NW,325,0.0,0.0,97,0.00,,,0.00,0,WeatherCatV1.11B39,2013-01-30 07:11:00,
2013-01-30 02:16:00,30.0,29.3,29.61,NW,325,0.0,1.0,97,0.00,,,0.00,0,WeatherCatV1.11B39,2013-01-30 07:16:00,
2013-01-30 02:21:00,30.0,29.3,29.61,NW,325,0.0,0.0,97,0.00,,,0.00,0,WeatherCatV1.11B39,2013-01-30 07:21:00,
2013-01-30 02:26:00,30.1,29.4,29.61,NW,325,0.0,0.0,97,0.00,,,0.00,0,WeatherCatV1.11B39,2013-01-30 07:26:00,
2013-01-30 02:31:00,30.1,29.4,29.61,NW,325,0.0,0.0,97,0.00,,,0.00,0,WeatherCatV1.11B39,2013-01-30 07:31:00,
2013-01-30 02:36:00,30.2,29.5,29.61,NW,325,0.0,0.0,97,0.00,,,0.00,0,WeatherCatV1.11B39,2013-01-30 07:36:00,
2013-01-30 02:41:00,30.2,29.5,29.60,NW,325,0.0,0.0,97,0.00,,,0.00,0,WeatherCatV1.11B39,2013-01-30 07:41:00,
2013-01-30 02:46:00,30.2,29.5,29.61,NW,325,0.0,0.0,97,0.00,,,0.00,0,WeatherCatV1.11B39,2013-01-30 07:46:00,
2013-01-30 02:51:00,30.2,29.5,29.60,NW,325,0.0,0.0,97,0.00,,,0.00,0,WeatherCatV1.11B39,2013-01-30 07:51:00,
2013-01-30 02:56:00,30.3,29.6,29.59,NW,325,0.0,0.0,97,0.00,,,0.00,0,WeatherCatV1.11B39,2013-01-30 07:56:00,
2013-01-30 03:01:00,30.3,29.6,29.58,NW,325,0.0,0.0,97,0.00,,,0.00,0,WeatherCatV1.11B39,2013-01-30 08:01:00,
2013-01-30 03:06:00,30.4,29.7,29.58,NW,325,0.0,0.0,97,0.00,,,0.00,0,WeatherCatV1.11B39,2013-01-30 08:06:00,
2013-01-30 03:11:00,30.4,29.7,29.58,NW,325,0.0,0.0,97,0.00,,,0.00,0,WeatherCatV1.11B39,2013-01-30 08:11:00,
2013-01-30 03:16:00,30.5,29.8,29.58,SW,236,0.0,2.0,97,0.00,,,0.00,0,WeatherCatV1.11B39,2013-01-30 08:16:00,
2013-01-30 03:21:00,30.6,29.9,29.57,SSW,200,0.0,0.0,97,0.00,,,0.00,0,WeatherCatV1.11B39,2013-01-30 08:21:00,
2013-01-30 03:26:00,30.6,29.9,29.57,SSW,200,0.0,0.0,97,0.00,,,0.00,0,WeatherCatV1.11B39,2013-01-30 08:26:00,
2013-01-30 03:31:00,30.7,30.0,29.57,SSW,200,0.0,0.0,97,0.00,,,0.00,0,WeatherCatV1.11B39,2013-01-30 08:31:00,
2013-01-30 03:36:00,30.7,30.0,29.56,SSW,200,0.0,1.0,97,0.00,,,0.00,0,WeatherCatV1.11B39,2013-01-30 08:36:00,
2013-01-30 03:41:00,30.8,30.1,29.56,SSW,200,0.0,0.0,97,0.00,,,0.00,0,WeatherCatV1.11B39,2013-01-30 08:41:00,
2013-01-30 03:46:00,30.8,30.1,29.56,SSW,200,0.0,0.0,97,0.00,,,0.00,0,WeatherCatV1.11B39,2013-01-30 08:46:00,
2013-01-30 03:51:00,30.9,30.2,29.56,SSW,200,0.0,0.0,97,0.00,,,0.00,0,WeatherCatV1.11B39,2013-01-30 08:51:00,
2013-01-30 03:56:00,30.9,30.2,29.56,SSW,200,0.0,1.0,97,0.00,,,0.00,0,WeatherCatV1.11B39,2013-01-30 08:56:00,
2013-01-30 04:01:00,31.0,30.2,29.55,SSW,200,0.0,2.0,97,0.00,,,0.00,0,WeatherCatV1.11B39,2013-01-30 09:01:00,
2013-01-30 04:06:00,31.0,30.2,29.54,SSW,200,0.0,0.0,97,0.00,,,0.00,0,WeatherCatV1.11B39,2013-01-30 09:06:00,
2013-01-30 04:11:00,31.1,30.4,29.55,SSW,199,0.0,2.0,97,0.00,,,0.00,0,WeatherCatV1.11B39,2013-01-30 09:11:00,
2013-01-30 04:16:00,31.2,30.5,29.54,SSW,199,0.0,1.0,97,0.00,,,0.00,0,WeatherCatV1.11B39,2013-01-30 09:16:00,
2013-01-30 04:21:00,31.2,30.5,29.54,SSW,199,0.0,1.0,97,0.00,,,0.00,0,WeatherCatV1.11B39,2013-01-30 09:21:00,
2013-01-30 04:26:00,31.3,30.5,29.54,SSW,199,0.0,1.0,97,0.00,,,0.00,0,WeatherCatV1.11B39,2013-01-30 09:26:00,
2013-01-30 04:31:00,31.3,30.5,29.54,SSW,199,0.0,0.0,97,0.00,,,0.00,0,WeatherCatV1.11B39,2013-01-30 09:31:00,
2013-01-30 04:36:00,31.3,30.5,29.54,SSW,199,0.0,1.0,97,0.00,,,0.00,0,WeatherCatV1.11B39,2013-01-30 09:36:00,
2013-01-30 04:41:00,31.4,30.6,29.54,SSW,199,0.0,1.0,97,0.00,,,0.00,0,WeatherCatV1.11B39,2013-01-30 09:41:00,
2013-01-30 04:46:00,31.4,30.6,29.54,SSW,199,0.0,0.0,97,0.00,,,0.00,0,WeatherCatV1.11B39,2013-01-30 09:46:00,
2013-01-30 04:51:00,31.4,30.6,29.54,SSW,200,0.0,1.0,97,0.00,,,0.00,0,WeatherCatV1.11B39,2013-01-30 09:51:00,
2013-01-30 04:56:00,31.4,30.6,29.53,South,188,0.0,2.0,97,0.00,,,0.00,0,WeatherCatV1.11B39,2013-01-30 09:56:00,
2013-01-30 05:01:00,31.4,30.6,29.53,South,186,1.0,1.0,97,0.00,,,0.00,0,WeatherCatV1.11B39,2013-01-30 10:01:00,
2013-01-30 05:06:00,31.5,30.7,29.52,SSE,162,0.0,4.0,97,0.00,,,0.00,0,WeatherCatV1.11B39,2013-01-30 10:06:00,
2013-01-30 05:11:00,31.5,30.7,29.52,SSE,165,0.0,1.0,97,0.00,,,0.00,0,WeatherCatV1.11B39,2013-01-30 10:11:00,
2013-01-30 05:16:00,31.5,30.7,29.52,SSE,165,0.0,2.0,97,0.00,,,0.00,0,WeatherCatV1.11B39,2013-01-30 10:16:00,
2013-01-30 05:21:00,31.6,30.8,29.52,South,176,0.0,2.0,97,0.00,,,0.00,0,WeatherCatV1.11B39,2013-01-30 10:21:00,
2013-01-30 05:26:00,31.6,30.8,29.51,South,178,1.0,2.0,97,0.00,,,0.00,0,WeatherCatV1.11B39,2013-01-30 10:26:00,
2013-01-30 05:31:00,31.6,30.8,29.51,South,175,0.0,2.0,97,0.00,,,0.00,0,WeatherCatV1.11B39,2013-01-30 10:31:00,
2013-01-30 05:36:00,31.7,30.9,29.51,South,172,1.0,2.0,97,0.00,,,0.00,0,WeatherCatV1.11B39,2013-01-30 10:36:00,
2013-01-30 05:41:00,31.7,30.9,29.51,South,189,1.0,1.0,97,0.00,,,0.00,0,WeatherCatV1.11B39,2013-01-30 10:41:00,
2013-01-30 05:46:00,31.7,30.9,29.52,South,182,0.0,3.0,97,0.00,,,0.00,0,WeatherCatV1.11B39,2013-01-30 10:46:00,
2013-01-30 05:51:00,31.7,30.9,29.50,South,184,0.0,1.0,97,0.00,,,0.00,0,WeatherCatV1.11B39,2013-01-30 10:51:00,
2013-01-30 05:56:00,31.7,30.9,29.50,SSW,204,0.0,1.0,97,0.00,,,0.00,0,WeatherCatV1.11B39,2013-01-30 10:56:00,
2013-01-30 06:01:00,31.7,30.9,29.50,SSW,194,0.0,1.0,97,0.00,,,0.00,0,WeatherCatV1.11B39,2013-01-30 11:01:00,
2013-01-30 06:06:00,31.8,31.0,29.50,SSW,195,0.0,1.0,97,0.00,,,0.00,0,WeatherCatV1.11B39,2013-01-30 11:06:00,
2013-01-30 06:11:00,31.7,30.9,29.50,SSW,195,0.0,0.0,97,0.00,,,0.00,0,WeatherCatV1.11B39,2013-01-30 11:11:00,
2013-01-30 06:16:00,31.8,31.0,29.50,SSW,195,0.0,1.0,97,0.00,,,0.00,0,WeatherCatV1.11B39,2013-01-30 11:16:00,
2013-01-30 06:21:00,31.8,31.0,29.50,SSW,195,0.0,0.0,97,0.00,,,0.00,0,WeatherCatV1.11B39,2013-01-30 11:21:00,
2013-01-30 06:26:00,31.8,31.0,29.49,SSW,195,0.0,1.0,97,0.00,,,0.00,0,WeatherCatV1.11B39,2013-01-30 11:26:00,
2013-01-30 06:31:00,31.8,31.0,29.49,SSW,195,0.0,0.0,97,0.00,,,0.00,0,WeatherCatV1.11B39,2013-01-30 11:31:00,
2013-01-30 06:36:00,31.8,31.0,29.49,SSW,195,0.0,0.0,97,0.00,,,0.00,0,WeatherCatV1.11B39,2013-01-30 11:36:00,
2013-01-30 06:41:00,31.8,31.0,29.49,SSW,195,0.0,0.0,97,0.00,,,0.00,0,WeatherCatV1.11B39,2013-01-30 11:41:00,
2013-01-30 06:46:00,31.8,31.0,29.49,SSW,195,0.0,0.0,97,0.00,,,0.00,0,WeatherCatV1.11B39,2013-01-30 11:46:00,
2013-01-30 06:51:00,31.8,31.0,29.49,SSW,195,0.0,0.0,97,0.00,,,0.00,0,WeatherCatV1.11B39,2013-01-30 11:51:00,
2013-01-30 06:56:00,31.8,31.0,29.49,SSW,195,0.0,0.0,97,0.00,,,0.00,0,WeatherCatV1.11B39,2013-01-30 11:56:00,
2013-01-30 07:01:00,31.8,31.0,29.48,SSW,195,0.0,0.0,97,0.00,,,0.00,0,WeatherCatV1.11B39,2013-01-30 12:01:00,
2013-01-30 07:06:00,31.8,31.0,29.48,SSW,195,1.0,1.0,97,0.00,,,0.00,0,WeatherCatV1.11B39,2013-01-30 12:06:00,
2013-01-30 07:11:00,31.9,31.1,29.48,SSW,195,0.0,0.0,97,0.00,,,0.00,0,WeatherCatV1.11B39,2013-01-30 12:11:00,
2013-01-30 07:16:00,31.9,31.4,29.48,SSW,194,0.0,1.0,98,0.00,,,0.00,0,WeatherCatV1.11B39,2013-01-30 12:16:00,
2013-01-30 07:21:00,31.9,31.4,29.47,SSW,194,0.0,1.0,98,0.00,,,0.00,0,WeatherCatV1.11B39,2013-01-30 12:21:00,
2013-01-30 07:26:00,32.0,31.5,29.47,SSW,194,0.0,0.0,98,0.00,,,0.00,0,WeatherCatV1.11B39,2013-01-30 12:26:00,
2013-01-30 07:31:00,32.0,31.5,29.47,SSW,194,1.0,1.0,98,0.00,,,0.00,0,WeatherCatV1.11B39,2013-01-30 12:31:00,
2013-01-30 07:36:00,32.1,31.6,29.47,SSW,194,0.0,0.0,98,0.00,,,0.00,0,WeatherCatV1.11B39,2013-01-30 12:36:00,
2013-01-30 07:41:00,32.1,31.6,29.47,SSW,194,0.0,0.0,98,0.00,,,0.00,0,WeatherCatV1.11B39,2013-01-30 12:41:00,
2013-01-30 07:46:00,32.1,31.6,29.47,SSW,194,0.0,1.0,98,0.00,,,0.00,0,WeatherCatV1.11B39,2013-01-30 12:46:00,
2013-01-30 07:51:00,32.1,31.6,29.47,SSW,194,0.0,0.0,98,0.00,,,0.00,5,WeatherCatV1.11B39,2013-01-30 12:51:00,
2013-01-30 07:56:00,32.1,31.6,29.46,SSW,194,0.0,1.0,98,0.00,,,0.00,7,WeatherCatV1.11B39,2013-01-30 12:56:00,
2013-01-30 08:01:00,32.1,31.6,29.46,SSW,194,0.0,1.0,98,0.00,,,0.00,7,WeatherCatV1.11B39,2013-01-30 13:01:00,
2013-01-30 08:06:00,32.1,31.6,29.46,SSW,194,0.0,0.0,98,0.00,,,0.00,7,WeatherCatV1.11B39,2013-01-30 13:06:00,
2013-01-30 08:11:00,32.1,31.6,29.46,SSW,194,0.0,0.0,98,0.00,,,0.00,7,WeatherCatV1.11B39,2013-01-30 13:11:00,
2013-01-30 08:16:00,32.1,31.6,29.46,SSW,194,0.0,0.0,98,0.00,,,0.00,7,WeatherCatV1.11B39,2013-01-30 13:16:00,
2013-01-30 08:21:00,32.1,31.6,29.45,SSW,194,0.0,0.0,98,0.00,,,0.00,7,WeatherCatV1.11B39,2013-01-30 13:21:00,
2013-01-30 08:26:00,32.2,31.7,29.45,SSW,194,0.0,0.0,98,0.00,,,0.00,9,WeatherCatV1.11B39,2013-01-30 13:26:00,
2013-01-30 08:31:00,32.2,31.7,29.45,SSW,194,0.0,0.0,98,0.00,,,0.00,9,WeatherCatV1.11B39,2013-01-30 13:31:00,
2013-01-30 08:36:00,32.2,31.4,29.45,SSW,194,0.0,0.0,97,0.00,,,0.00,7,WeatherCatV1.11B39,2013-01-30 13:36:00,
2013-01-30 08:41:00,32.2,31.4,29.45,SSW,194,0.0,0.0,97,0.00,,,0.00,7,WeatherCatV1.11B39,2013-01-30 13:41:00,
2013-01-30 08:46:00,32.2,31.4,29.44,SSW,194,0.0,0.0,97,0.00,,,0.00,7,WeatherCatV1.11B39,2013-01-30 13:46:00,
2013-01-30 08:51:00,32.2,31.4,29.44,SSW,194,0.0,0.0,97,0.00,,,0.00,5,WeatherCatV1.11B39,2013-01-30 13:51:00,
2013-01-30 08:56:00,32.2,31.4,29.43,SSW,194,0.0,0.0,97,0.00,,,0.00,7,WeatherCatV1.11B39,2013-01-30 13:56:00,
2013-01-30 09:01:00,32.2,31.4,29.43,SSW,194,0.0,0.0,97,0.00,,,0.00,9,WeatherCatV1.11B39,2013-01-30 14:01:00,
2013-01-30 09:06:00,32.1,31.3,29.43,SSW,194,0.0,0.0,97,0.00,,,0.00,9,WeatherCatV1.11B39,2013-01-30 14:06:00,
2013-01-30 09:11:00,32.1,31.6,29.43,SSW,194,0.0,0.0,98,0.00,,,0.00,11,WeatherCatV1.11B39,2013-01-30 14:11:00,
2013-01-30 09:16:00,32.2,31.4,29.42,SSW,194,0.0,0.0,97,0.00,,,0.00,11,WeatherCatV1.11B39,2013-01-30 14:16:00,
2013-01-30 09:21:00,32.2,31.4,29.42,SSW,194,0.0,0.0,97,0.00,,,0.00,11,WeatherCatV1.11B39,2013-01-30 14:21:00,
2013-01-30 09:26:00,32.2,31.4,29.41,SSW,194,0.0,0.0,97,0.00,,,0.00,9,WeatherCatV1.11B39,2013-01-30 14:26:00,
2013-01-30 09:31:00,32.2,31.4,29.41,SSW,194,0.0,0.0,97,0.00,,,0.00,12,WeatherCatV1.11B39,2013-01-30 14:31:00,
2013-01-30 09:36:00,32.3,31.5,29.40,SSW,194,0.0,1.0,97,0.00,,,0.00,19,WeatherCatV1.11B39,2013-01-30 14:36:00,
2013-01-30 09:41:00,32.4,31.6,29.40,SSW,194,0.0,0.0,97,0.00,,,0.00,19,WeatherCatV1.11B39,2013-01-30 14:41:00,
2013-01-30 09:46:00,32.5,32.0,29.39,SSW,194,0.0,1.0,98,0.00,,,0.00,25,WeatherCatV1.11B39,2013-01-30 14:46:00,
2013-01-30 09:51:00,32.6,32.1,29.39,SSW,194,0.0,0.0,98,0.00,,,0.00,19,WeatherCatV1.11B39,2013-01-30 14:51:00,
2013-01-30 09:56:00,32.7,32.2,29.39,SSW,194,0.0,0.0,98,0.00,,,0.00,21,WeatherCatV1.11B39,2013-01-30 14:56:00,
2013-01-30 10:01:00,32.8,32.3,29.39,SSW,194,0.0,0.0,98,0.00,,,0.00,19,WeatherCatV1.11B39,2013-01-30 15:01:00,
2013-01-30 10:06:00,32.9,32.4,29.38,SSW,194,0.0,0.0,98,0.00,,,0.01,19,WeatherCatV1.11B39,2013-01-30 15:06:00,
2013-01-30 10:11:00,33.0,32.5,29.38,SSW,194,0.0,0.0,98,0.00,,,0.01,25,WeatherCatV1.11B39,2013-01-30 15:11:00,
2013-01-30 10:16:00,33.1,32.6,29.38,SSW,194,0.0,0.0,98,0.00,,,0.01,23,WeatherCatV1.11B39,2013-01-30 15:16:00,
2013-01-30 10:21:00,33.1,32.6,29.38,SSW,194,0.0,0.0,98,0.00,,,0.01,21,WeatherCatV1.11B39,2013-01-30 15:21:00,
2013-01-30 10:26:00,33.2,32.7,29.37,SSW,194,0.0,0.0,98,0.00,,,0.01,23,WeatherCatV1.11B39,2013-01-30 15:26:00,
2013-01-30 10:31:00,33.2,32.7,29.36,SSW,194,0.0,0.0,98,0.00,,,0.01,21,WeatherCatV1.11B39,2013-01-30 15:31:00,
2013-01-30 10:36:00,33.2,32.7,29.36,SSW,194,0.0,0.0,98,0.00,,,0.01,25,WeatherCatV1.11B39,2013-01-30 15:36:00,
2013-01-30 10:41:00,33.2,32.7,29.36,SSW,194,0.0,0.0,98,0.00,,,0.01,25,WeatherCatV1.11B39,2013-01-30 15:41:00,
2013-01-30 10:46:00,33.3,32.8,29.35,SSW,194,0.0,0.0,98,0.00,,,0.01,21,WeatherCatV1.11B39,2013-01-30 15:46:00,
2013-01-30 10:51:00,33.4,32.9,29.35,SSW,194,0.0,0.0,98,0.00,,,0.01,18,WeatherCatV1.11B39,2013-01-30 15:51:00,
2013-01-30 10:56:00,33.4,32.9,29.34,SSW,194,0.0,0.0,98,0.00,,,0.01,18,WeatherCatV1.11B39,2013-01-30 15:56:00,
2013-01-30 11:01:00,33.4,32.9,29.34,SSW,194,0.0,0.0,98,0.00,,,0.01,23,WeatherCatV1.11B39,2013-01-30 16:01:00,
2013-01-30 11:06:00,33.4,32.9,29.33,SSW,194,0.0,0.0,98,0.00,,,0.01,21,WeatherCatV1.11B39,2013-01-30 16:06:00,
2013-01-30 11:11:00,33.5,33.0,29.32,SSW,194,0.0,0.0,98,0.00,,,0.01,23,WeatherCatV1.11B39,2013-01-30 16:11:00,
2013-01-30 11:16:00,33.5,33.0,29.32,SSW,194,0.0,0.0,98,0.00,,,0.01,21,WeatherCatV1.11B39,2013-01-30 16:16:00,
2013-01-30 11:21:00,33.5,33.0,29.31,SSW,194,0.0,0.0,98,0.00,,,0.01,23,WeatherCatV1.11B39,2013-01-30 16:21:00,
2013-01-30 11:26:00,33.5,33.0,29.31,SSW,194,0.0,0.0,98,0.00,,,0.01,18,WeatherCatV1.11B39,2013-01-30 16:26:00,
2013-01-30 11:31:00,33.6,33.1,29.30,SSW,194,0.0,0.0,98,0.00,,,0.01,19,WeatherCatV1.11B39,2013-01-30 16:31:00,
2013-01-30 11:36:00,33.6,33.1,29.29,SSW,194,0.0,0.0,98,0.00,,,0.01,14,WeatherCatV1.11B39,2013-01-30 16:36:00,
2013-01-30 11:41:00,33.6,33.1,29.29,SSW,194,0.0,1.0,98,0.00,,,0.01,14,WeatherCatV1.11B39,2013-01-30 16:41:00,
2013-01-30 11:46:00,33.5,33.0,29.28,SSW,194,0.0,0.0,98,0.00,,,0.01,16,WeatherCatV1.11B39,2013-01-30 16:46:00,
2013-01-30 11:51:00,33.5,33.0,29.28,SSW,194,0.0,0.0,98,0.00,,,0.01,16,WeatherCatV1.11B39,2013-01-30 16:51:00,
2013-01-30 11:56:00,33.5,33.0,29.28,SSW,194,0.0,0.0,98,0.00,,,0.01,16,WeatherCatV1.11B39,2013-01-30 16:56:00,
2013-01-30 12:01:00,33.5,33.0,29.27,SSW,194,0.0,0.0,98,0.00,,,0.01,14,WeatherCatV1.11B39,2013-01-30 17:01:00,
2013-01-30 12:06:00,33.5,33.0,29.27,SSW,194,0.0,0.0,98,0.00,,,0.01,14,WeatherCatV1.11B39,2013-01-30 17:06:00,
2013-01-30 12:11:00,33.5,33.0,29.26,SSW,194,0.0,0.0,98,0.00,,,0.01,12,WeatherCatV1.11B39,2013-01-30 17:11:00,
2013-01-30 12:16:00,33.4,32.9,29.26,SSW,194,0.0,0.0,98,0.00,,,0.01,12,WeatherCatV1.11B39,2013-01-30 17:16:00,
2013-01-30 12:21:00,33.4,32.9,29.26,SSW,194,0.0,0.0,98,0.00,,,0.01,14,WeatherCatV1.11B39,2013-01-30 17:21:00,
2013-01-30 12:26:00,33.4,32.9,29.25,SSW,194,0.0,0.0,98,0.00,,,0.01,12,WeatherCatV1.11B39,2013-01-30 17:26:00,
2013-01-30 12:31:00,33.3,32.8,29.25,SSW,194,0.0,0.0,98,0.00,,,0.01,19,WeatherCatV1.11B39,2013-01-30 17:31:00,
2013-01-30 12:36:00,33.3,32.8,29.25,SSW,194,0.0,0.0,98,0.00,,,0.01,25,WeatherCatV1.11B39,2013-01-30 17:36:00,
2013-01-30 12:41:00,33.3,32.8,29.24,SSW,194,0.0,0.0,98,0.00,,,0.01,25,WeatherCatV1.11B39,2013-01-30 17:41:00,
2013-01-30 12:46:00,33.4,32.9,29.24,SSW,194,0.0,0.0,98,0.00,,,0.01,19,WeatherCatV1.11B39,2013-01-30 17:46:00,
2013-01-30 12:52:00,33.4,32.9,29.24,SSW,194,0.0,0.0,98,0.00,,,0.01,16,WeatherCatV1.11B39,2013-01-30 17:52:00,
2013-01-30 12:57:00,33.4,32.9,29.23,SSW,194,0.0,0.0,98,0.00,,,0.01,23,WeatherCatV1.11B39,2013-01-30 17:57:00,
2013-01-30 13:02:00,33.5,33.0,29.23,SSW,194,0.0,0.0,98,0.00,,,0.01,26,WeatherCatV1.11B39,2013-01-30 18:02:00,
2013-01-30 13:07:00,33.5,33.0,29.23,SSW,194,0.0,0.0,98,0.00,,,0.01,19,WeatherCatV1.11B39,2013-01-30 18:07:00,
2013-01-30 13:12:00,33.5,33.0,29.22,SSW,194,0.0,0.0,98,0.00,,,0.01,12,WeatherCatV1.11B39,2013-01-30 18:12:00,
2013-01-30 13:17:00,33.5,33.0,29.21,SSW,194,0.0,0.0,98,0.00,,,0.01,12,WeatherCatV1.11B39,2013-01-30 18:17:00,
2013-01-30 13:22:00,33.5,33.0,29.21,SSW,194,0.0,0.0,98,0.00,,,0.01,19,WeatherCatV1.11B39,2013-01-30 18:22:00,
2013-01-30 13:27:00,33.5,32.7,29.20,SSW,194,0.0,0.0,97,0.00,,,0.01,19,WeatherCatV1.11B39,2013-01-30 18:27:00,
2013-01-30 13:32:00,33.5,32.7,29.19,SSW,194,0.0,0.0,97,0.00,,,0.01,19,WeatherCatV1.11B39,2013-01-30 18:32:00,
2013-01-30 13:37:00,33.5,33.0,29.19,SSW,194,0.0,0.0,98,0.00,,,0.01,19,WeatherCatV1.11B39,2013-01-30 18:37:00,
2013-01-30 13:42:00,33.5,33.0,29.18,SSW,194,0.0,0.0,98,0.00,,,0.01,19,WeatherCatV1.11B39,2013-01-30 18:42:00,
2013-01-30 13:47:00,33.5,33.0,29.18,SSW,194,0.0,0.0,98,0.00,,,0.01,16,WeatherCatV1.11B39,2013-01-30 18:47:00,
2013-01-30 13:52:00,33.6,33.1,29.18,SSW,194,0.0,0.0,98,0.00,,,0.01,19,WeatherCatV1.11B39,2013-01-30 18:52:00,
2013-01-30 13:57:00,33.6,33.1,29.18,SSW,194,0.0,0.0,98,0.00,,,0.01,18,WeatherCatV1.11B39,2013-01-30 18:57:00,
2013-01-30 14:02:00,33.6,33.1,29.17,SSW,194,0.0,0.0,98,0.00,,,0.01,19,WeatherCatV1.11B39,2013-01-30 19:02:00,
2013-01-30 14:07:00,33.6,33.1,29.18,SSW,194,0.0,0.0,98,0.00,,,0.01,16,WeatherCatV1.11B39,2013-01-30 19:07:00,
2013-01-30 14:12:00,33.6,33.1,29.17,SSW,194,0.0,0.0,98,0.00,,,0.02,19,WeatherCatV1.11B39,2013-01-30 19:12:00,
2013-01-30 14:17:00,33.6,33.1,29.17,SSW,194,0.0,0.0,98,0.00,,,0.02,19,WeatherCatV1.11B39,2013-01-30 19:17:00,
2013-01-30 14:22:00,33.6,32.8,29.17,SSW,194,0.0,0.0,97,0.00,,,0.02,16,WeatherCatV1.11B39,2013-01-30 19:22:00,
2013-01-30 14:27:00,33.6,32.8,29.17,SSW,194,0.0,0.0,97,0.04,,,0.03,12,WeatherCatV1.11B39,2013-01-30 19:27:00,
2013-01-30 14:32:00,33.5,32.7,29.16,SSW,194,0.0,0.0,97,0.04,,,0.03,14,WeatherCatV1.11B39,2013-01-30 19:32:00,
2013-01-30 14:37:00,33.5,32.7,29.16,SSW,194,0.0,0.0,97,0.04,,,0.03,12,WeatherCatV1.11B39,2013-01-30 19:37:00,
2013-01-30 14:42:00,33.4,32.6,29.16,SSW,194,0.0,0.0,97,0.00,,,0.03,11,WeatherCatV1.11B39,2013-01-30 19:42:00,
2013-01-30 14:47:00,33.4,32.6,29.15,SSW,194,0.0,0.0,97,0.00,,,0.03,9,WeatherCatV1.11B39,2013-01-30 19:47:00,
2013-01-30 14:52:00,33.4,32.9,29.14,SSW,194,0.0,0.0,98,0.00,,,0.03,11,WeatherCatV1.11B39,2013-01-30 19:52:00,
2013-01-30 14:57:00,33.3,32.5,29.14,SSW,194,0.0,0.0,97,0.00,,,0.03,11,WeatherCatV1.11B39,2013-01-30 19:57:00,
2013-01-30 15:02:00,33.3,32.5,29.13,SSW,194,0.0,0.0,97,0.00,,,0.03,9,WeatherCatV1.11B39,2013-01-30 20:02:00,
2013-01-30 15:07:00,33.2,32.4,29.13,SSW,194,0.0,0.0,97,0.00,,,0.04,7,WeatherCatV1.11B39,2013-01-30 20:07:00,
2013-01-30 15:12:00,33.2,32.4,29.13,SSW,194,0.0,0.0,97,0.00,,,0.04,5,WeatherCatV1.11B39,2013-01-30 20:12:00,
2013-01-30 15:17:00,33.1,32.3,29.12,SSW,194,0.0,0.0,97,0.00,,,0.04,5,WeatherCatV1.11B39,2013-01-30 20:17:00,
2013-01-30 15:22:00,33.0,32.2,29.13,SSW,194,0.0,0.0,97,0.00,,,0.04,7,WeatherCatV1.11B39,2013-01-30 20:22:00,
2013-01-30 15:27:00,33.0,32.2,29.13,SSW,194,0.0,1.0,97,0.00,,,0.04,5,WeatherCatV1.11B39,2013-01-30 20:27:00,
2013-01-30 15:32:00,33.0,32.2,29.13,SSW,194,0.0,0.0,97,0.00,,,0.04,5,WeatherCatV1.11B39,2013-01-30 20:32:00,
2013-01-30 15:37:00,33.0,32.2,29.12,SSW,194,0.0,0.0,97,0.00,,,0.04,5,WeatherCatV1.11B39,2013-01-30 20:37:00,
2013-01-30 15:42:00,33.0,32.2,29.12,SSW,194,0.0,1.0,97,0.00,,,0.04,5,WeatherCatV1.11B39,2013-01-30 20:42:00,
2013-01-30 15:47:00,32.9,32.4,29.12,SSW,194,0.0,0.0,98,0.00,,,0.04,5,WeatherCatV1.11B39,2013-01-30 20:47:00,
2013-01-30 15:52:00,32.9,32.1,29.11,SSW,194,0.0,0.0,97,0.00,,,0.04,5,WeatherCatV1.11B39,2013-01-30 20:52:00,
2013-01-30 15:57:00,32.8,32.0,29.12,SSW,194,0.0,0.0,97,0.00,,,0.04,0,WeatherCatV1.11B39,2013-01-30 20:57:00,
2013-01-30 16:02:00,32.8,32.0,29.11,SSW,194,0.0,0.0,97,0.00,,,0.04,0,WeatherCatV1.11B39,2013-01-30 21:02:00,
2013-01-30 16:07:00,32.8,32.0,29.11,SSW,194,0.0,0.0,97,0.00,,,0.05,0,WeatherCatV1.11B39,2013-01-30 21:07:00,
2013-01-30 16:12:00,32.7,31.9,29.11,SSW,194,0.0,0.0,97,0.00,,,0.05,0,WeatherCatV1.11B39,2013-01-30 21:12:00,
2013-01-30 16:17:00,32.7,32.2,29.11,SSW,194,0.0,0.0,98,0.00,,,0.05,0,WeatherCatV1.11B39,2013-01-30 21:17:00,
2013-01-30 16:22:00,32.7,32.2,29.10,SSW,194,0.0,0.0,98,0.00,,,0.05,0,WeatherCatV1.11B39,2013-01-30 21:22:00,
2013-01-30 16:27:00,32.7,32.2,29.09,SSW,194,0.0,0.0,98,0.00,,,0.05,0,WeatherCatV1.11B39,2013-01-30 21:27:00,
2013-01-30 16:32:00,32.6,31.8,29.10,SSW,194,0.0,1.0,97,0.00,,,0.05,0,WeatherCatV1.11B39,2013-01-30 21:32:00,
2013-01-30 16:37:00,32.5,31.7,29.09,SSW,194,0.0,0.0,97,0.00,,,0.06,0,WeatherCatV1.11B39,2013-01-30 21:37:00,
2013-01-30 16:42:00,32.5,31.7,29.09,SSW,194,0.0,0.0,97,0.00,,,0.06,0,WeatherCatV1.11B39,2013-01-30 21:42:00,
2013-01-30 16:47:00,32.4,31.6,29.09,SSW,194,0.0,0.0,97,0.00,,,0.06,0,WeatherCatV1.11B39,2013-01-30 21:47:00,
2013-01-30 16:52:00,32.3,31.5,29.09,SSW,194,0.0,0.0,97,0.00,,,0.06,0,WeatherCatV1.11B39,2013-01-30 21:52:00,
2013-01-30 16:57:00,32.3,31.5,29.09,SSW,194,0.0,0.0,97,0.00,,,0.06,0,WeatherCatV1.11B39,2013-01-30 21:57:00,
2013-01-30 17:02:00,32.4,31.6,29.09,SSW,194,0.0,1.0,97,0.00,,,0.06,0,WeatherCatV1.11B39,2013-01-30 22:02:00,
2013-01-30 17:07:00,32.4,31.6,29.09,SSW,194,0.0,1.0,97,0.00,,,0.07,0,WeatherCatV1.11B39,2013-01-30 22:07:00,
2013-01-30 17:12:00,32.4,31.6,29.08,SSW,194,0.0,0.0,97,0.00,,,0.07,0,WeatherCatV1.11B39,2013-01-30 22:12:00,
2013-01-30 17:17:00,32.4,31.6,29.09,SSW,194,0.0,1.0,97,0.00,,,0.07,0,WeatherCatV1.11B39,2013-01-30 22:17:00,
2013-01-30 17:22:00,32.3,31.5,29.09,SSW,194,0.0,0.0,97,0.00,,,0.07,0,WeatherCatV1.11B39,2013-01-30 22:22:00,
2013-01-30 17:27:00,32.4,31.6,29.09,SSW,194,0.0,0.0,97,0.00,,,0.07,0,WeatherCatV1.11B39,2013-01-30 22:27:00,
2013-01-30 17:32:00,32.3,31.5,29.09,SSW,194,0.0,0.0,97,0.00,,,0.08,0,WeatherCatV1.11B39,2013-01-30 22:32:00,
2013-01-30 17:37:00,32.3,31.5,29.09,SSW,194,0.0,0.0,97,0.00,,,0.08,0,WeatherCatV1.11B39,2013-01-30 22:37:00,
2013-01-30 17:42:00,32.3,31.5,29.09,SSW,194,0.0,0.0,97,0.00,,,0.08,0,WeatherCatV1.11B39,2013-01-30 22:42:00,
2013-01-30 17:47:00,32.3,31.5,29.09,SSW,194,0.0,0.0,97,0.00,,,0.08,0,WeatherCatV1.11B39,2013-01-30 22:47:00,
2013-01-30 17:52:00,32.3,31.5,29.09,SSW,194,0.0,0.0,97,0.00,,,0.08,0,WeatherCatV1.11B39,2013-01-30 22:52:00,
2013-01-30 17:57:00,32.2,31.7,29.08,SSW,194,0.0,0.0,98,0.00,,,0.08,0,WeatherCatV1.11B39,2013-01-30 22:57:00,
2013-01-30 18:02:00,32.2,31.7,29.08,SSW,194,0.0,0.0,98,0.00,,,0.08,0,WeatherCatV1.11B39,2013-01-30 23:02:00,
2013-01-30 18:07:00,32.2,31.7,29.08,SSW,194,0.0,0.0,98,0.00,,,0.08,0,WeatherCatV1.11B39,2013-01-30 23:07:00,
2013-01-30 18:12:00,32.2,31.7,29.07,SSW,194,0.0,0.0,98,0.00,,,0.08,0,WeatherCatV1.11B39,2013-01-30 23:12:00,
2013-01-30 18:17:00,32.2,31.7,29.07,SSW,194,0.0,0.0,98,0.00,,,0.08,0,WeatherCatV1.11B39,2013-01-30 23:17:00,
2013-01-30 18:22:00,32.2,31.7,29.07,SSW,194,0.0,0.0,98,0.00,,,0.08,0,WeatherCatV1.11B39,2013-01-30 23:22:00,
2013-01-30 18:27:00,32.2,31.7,29.08,SSW,194,0.0,0.0,98,0.00,,,0.08,0,WeatherCatV1.11B39,2013-01-30 23:27:00,
2013-01-30 18:32:00,32.3,31.8,29.08,SSW,194,0.0,1.0,98,0.00,,,0.08,0,WeatherCatV1.11B39,2013-01-30 23:32:00,
2013-01-30 18:37:00,32.3,31.8,29.08,SSW,194,0.0,0.0,98,0.00,,,0.08,0,WeatherCatV1.11B39,2013-01-30 23:37:00,
2013-01-30 18:42:00,32.3,31.8,29.08,SSW,194,0.0,0.0,98,0.00,,,0.09,0,WeatherCatV1.11B39,2013-01-30 23:42:00,
2013-01-30 18:47:00,32.4,31.9,29.08,SSW,194,0.0,0.0,98,0.00,,,0.09,0,WeatherCatV1.11B39,2013-01-30 23:47:00,
2013-01-30 18:52:00,32.4,31.9,29.07,SSW,194,0.0,0.0,98,0.00,,,0.09,0,WeatherCatV1.11B39,2013-01-30 23:52:00,
2013-01-30 18:57:00,32.4,31.9,29.07,SSW,194,0.0,0.0,98,0.00,,,0.09,0,WeatherCatV1.11B39,2013-01-30 23:57:00,
2013-01-30 19:02:00,32.3,31.8,29.06,SSW,194,0.0,0.0,98,0.00,,,0.09,0,WeatherCatV1.11B39,2013-01-31 00:02:00,
2013-01-30 19:07:00,32.3,31.8,29.06,SSW,194,0.0,0.0,98,0.00,,,0.09,0,WeatherCatV1.11B39,2013-01-31 00:07:00,
2013-01-30 19:12:00,32.3,31.8,29.06,SSW,194,0.0,0.0,98,0.00,,,0.09,0,WeatherCatV1.11B39,2013-01-31 00:12:00,
2013-01-30 19:17:00,32.3,31.8,29.06,SSW,194,0.0,0.0,98,0.00,,,0.09,0,WeatherCatV1.11B39,2013-01-31 00:17:00,
2013-01-30 19:22:00,32.2,31.7,29.06,SSW,194,0.0,0.0,98,0.00,,,0.09,0,WeatherCatV1.11B39,2013-01-31 00:22:00,
2013-01-30 19:27:00,32.2,31.7,29.06,SSW,194,0.0,0.0,98,0.00,,,0.09,0,WeatherCatV1.11B39,2013-01-31 00:27:00,
2013-01-30 19:32:00,32.3,31.8,29.06,SSW,194,0.0,0.0,98,0.00,,,0.10,0,WeatherCatV1.11B39,2013-01-31 00:32:00,
2013-01-30 19:37:00,32.2,31.7,29.05,SSW,194,0.0,0.0,98,0.00,,,0.10,0,WeatherCatV1.11B39,2013-01-31 00:37:00,
2013-01-30 19:42:00,32.2,31.7,29.06,SSW,194,0.0,0.0,98,0.00,,,0.10,0,WeatherCatV1.11B39,2013-01-31 00:42:00,
2013-01-30 19:47:00,32.1,31.6,29.06,SSW,194,0.0,0.0,98,0.00,,,0.10,0,WeatherCatV1.11B39,2013-01-31 00:47:00,
2013-01-30 19:52:00,32.1,31.6,29.05,SSW,194,0.0,0.0,98,0.00,,,0.10,0,WeatherCatV1.11B39,2013-01-31 00:52:00,
2013-01-30 19:57:00,32.1,31.6,29.05,SSW,194,0.0,0.0,98,0.00,,,0.10,0,WeatherCatV1.11B39,2013-01-31 00:57:00,
2013-01-30 20:02:00,32.1,31.6,29.05,SSW,194,0.0,0.0,98,0.00,,,0.10,0,WeatherCatV1.11B39,2013-01-31 01:02:00,
2013-01-30 20:07:00,32.1,31.6,29.04,SSW,194,0.0,0.0,98,0.00,,,0.10,0,WeatherCatV1.11B39,2013-01-31 01:07:00,
2013-01-30 20:12:00,32.0,31.5,29.04,SSW,194,0.0,0.0,98,0.00,,,0.10,0,WeatherCatV1.11B39,2013-01-31 01:12:00,
2013-01-30 20:17:00,32.0,31.5,29.04,SSW,194,0.0,0.0,98,0.00,,,0.10,0,WeatherCatV1.11B39,2013-01-31 01:17:00,
2013-01-30 20:22:00,32.0,31.5,29.04,SSW,194,0.0,0.0,98,0.00,,,0.11,0,WeatherCatV1.11B39,2013-01-31 01:22:00,
2013-01-30 20:27:00,32.1,31.6,29.04,SSW,194,0.0,0.0,98,0.00,,,0.11,0,WeatherCatV1.11B39,2013-01-31 01:27:00,
2013-01-30 20:32:00,32.1,31.6,29.04,SSW,194,0.0,0.0,98,0.00,,,0.11,0,WeatherCatV1.11B39,2013-01-31 01:32:00,
2013-01-30 20:37:00,32.1,31.6,29.03,SSW,194,0.0,0.0,98,0.00,,,0.11,0,WeatherCatV1.11B39,2013-01-31 01:37:00,
2013-01-30 20:42:00,32.1,31.6,29.02,SSW,194,0.0,0.0,98,0.00,,,0.11,0,WeatherCatV1.11B39,2013-01-31 01:42:00,
2013-01-30 20:47:00,32.1,31.6,29.01,SSW,194,0.0,1.0,98,0.00,,,0.11,0,WeatherCatV1.11B39,2013-01-31 01:47:00,
2013-01-30 20:52:00,32.1,31.6,29.02,SSW,194,0.0,0.0,98,0.00,,,0.11,0,WeatherCatV1.11B39,2013-01-31 01:52:00,
2013-01-30 20:57:00,32.1,31.6,29.02,SSW,194,0.0,0.0,98,0.00,,,0.11,0,WeatherCatV1.11B39,2013-01-31 01:57:00,
2013-01-30 21:02:00,32.1,31.6,29.02,SSW,194,0.0,1.0,98,0.00,,,0.12,0,WeatherCatV1.11B39,2013-01-31 02:02:00,
2013-01-30 21:07:00,32.2,31.7,29.02,NNE,24,0.0,0.0,98,0.00,,,0.12,0,WeatherCatV1.11B39,2013-01-31 02:07:00,
2013-01-30 21:12:00,32.2,31.7,29.01,NNE,24,0.0,0.0,98,0.00,,,0.12,0,WeatherCatV1.11B39,2013-01-31 02:12:00,
2013-01-30 21:17:00,32.2,31.7,29.01,NNE,24,0.0,0.0,98,0.00,,,0.12,0,WeatherCatV1.11B39,2013-01-31 02:17:00,
2013-01-30 21:22:00,32.2,31.7,29.00,NNE,24,0.0,0.0,98,0.00,,,0.12,0,WeatherCatV1.11B39,2013-01-31 02:22:00,
2013-01-30 21:27:00,32.2,31.7,29.00,NNE,24,0.0,0.0,98,0.00,,,0.12,0,WeatherCatV1.11B39,2013-01-31 02:27:00,
2013-01-30 21:32:00,32.3,31.8,29.00,NNE,24,0.0,0.0,98,0.00,,,0.12,0,WeatherCatV1.11B39,2013-01-31 02:32:00,
2013-01-30 21:37:00,32.3,31.8,29.02,NNE,24,0.0,0.0,98,0.00,,,0.12,0,WeatherCatV1.11B39,2013-01-31 02:37:00,
2013-01-30 21:42:00,32.3,31.8,29.02,NNE,24,0.0,0.0,98,0.00,,,0.12,0,WeatherCatV1.11B39,2013-01-31 02:42:00,
2013-01-30 21:47:00,32.3,31.8,29.01,NNE,24,0.0,0.0,98,0.00,,,0.12,0,WeatherCatV1.11B39,2013-01-31 02:47:00,
2013-01-30 21:52:00,32.3,31.8,29.00,NNE,24,0.0,0.0,98,0.00,,,0.12,0,WeatherCatV1.11B39,2013-01-31 02:52:00,
2013-01-30 21:57:00,32.4,31.9,29.00,NNE,24,0.0,0.0,98,0.00,,,0.12,0,WeatherCatV1.11B39,2013-01-31 02:57:00,
2013-01-30 22:02:00,32.3,31.8,29.00,NNE,24,0.0,0.0,98,0.00,,,0.12,0,WeatherCatV1.11B39,2013-01-31 03:02:00,
2013-01-30 22:07:00,32.3,31.8,29.00,NNE,24,0.0,0.0,98,0.00,,,0.13,0,WeatherCatV1.11B39,2013-01-31 03:07:00,
2013-01-30 22:12:00,32.3,31.8,29.00,NNE,24,0.0,0.0,98,0.00,,,0.13,0,WeatherCatV1.11B39,2013-01-31 03:12:00,
2013-01-30 22:17:00,32.3,31.8,29.00,NNW,335,0.0,1.0,98,0.00,,,0.13,0,WeatherCatV1.11B39,2013-01-31 03:17:00,
2013-01-30 22:22:00,32.3,31.8,29.00,NNW,335,0.0,0.0,98,0.00,,,0.13,0,WeatherCatV1.11B39,2013-01-31 03:22:00,
2013-01-30 22:27:00,32.4,31.9,29.00,NNW,335,0.0,0.0,98,0.00,,,0.13,0,WeatherCatV1.11B39,2013-01-31 03:27:00,
2013-01-30 22:32:00,32.4,31.9,29.00,NNW,335,0.0,0.0,98,0.00,,,0.13,0,WeatherCatV1.11B39,2013-01-31 03:32:00,
2013-01-30 22:37:00,32.4,31.9,28.99,NNW,335,0.0,0.0,98,0.00,,,0.13,0,WeatherCatV1.11B39,2013-01-31 03:37:00,
2013-01-30 22:42:00,32.3,31.8,28.98,NNW,335,0.0,0.0,98,0.00,,,0.13,0,WeatherCatV1.11B39,2013-01-31 03:42:00,
2013-01-30 22:47:00,32.3,31.8,28.98,NNW,335,0.0,0.0,98,0.00,,,0.13,0,WeatherCatV1.11B39,2013-01-31 03:47:00,
2013-01-30 22:52:00,32.3,31.8,28.97,NNW,335,0.0,0.0,98,0.00,,,0.13,0,WeatherCatV1.11B39,2013-01-31 03:52:00,
2013-01-30 22:57:00,32.3,31.8,28.97,NNW,335,0.0,0.0,98,0.00,,,0.13,0,WeatherCatV1.11B39,2013-01-31 03:57:00,
2013-01-30 23:02:00,32.3,31.8,28.96,NNW,335,0.0,0.0,98,0.00,,,0.14,0,WeatherCatV1.11B39,2013-01-31 04:02:00,
2013-01-30 23:07:00,32.3,31.8,28.97,NNW,335,0.0,0.0,98,0.00,,,0.14,0,WeatherCatV1.11B39,2013-01-31 04:07:00,
2013-01-30 23:12:00,32.3,31.8,28.97,NNW,335,0.0,0.0,98,0.00,,,0.14,0,WeatherCatV1.11B39,2013-01-31 04:12:00,
2013-01-30 23:17:00,32.3,31.8,28.97,NNW,335,0.0,0.0,98,0.00,,,0.14,0,WeatherCatV1.11B39,2013-01-31 04:17:00,
2013-01-30 23:22:00,32.3,31.8,28.96,NNW,335,0.0,0.0,98,0.00,,,0.14,0,WeatherCatV1.11B39,2013-01-31 04:22:00,
2013-01-30 23:27:00,32.3,31.8,28.96,NNW,335,0.0,1.0,98,0.00,,,0.14,0,WeatherCatV1.11B39,2013-01-31 04:27:00,
2013-01-30 23:32:00,32.3,31.8,28.96,NNW,335,0.0,0.0,98,0.00,,,0.14,0,WeatherCatV1.11B39,2013-01-31 04:32:00,
2013-01-30 23:37:00,32.3,31.8,28.96,NNW,335,0.0,0.0,98,0.00,,,0.14,0,WeatherCatV1.11B39,2013-01-31 04:37:00,
2013-01-30 23:42:00,32.3,31.8,28.95,NNW,335,0.0,0.0,98,0.00,,,0.14,0,WeatherCatV1.11B39,2013-01-31 04:42:00,
2013-01-30 23:47:00,32.3,31.8,28.95,NNW,335,0.0,0.0,98,0.00,,,0.14,0,WeatherCatV1.11B39,2013-01-31 04:47:00,
2013-01-30 23:52:00,32.3,31.8,28.96,NNW,335,0.0,0.0,98,0.00,,,0.14,0,WeatherCatV1.11B39,2013-01-31 04:52:00,
2013-01-30 23:57:00,32.4,31.9,28.95,NNW,335,0.0,0.0,98,0.00,,,0.14,0,WeatherCatV1.11B39,2013-01-31 04:57:00,